Tracking 29892 objects as of 21-Nov-2024
HD Live streaming from Space Station
objects crossing your sky now

FENGYUN 1C DEB

Track FENGYUN 1C DEB now!
10-day predictions


NORAD ID: 30964
Int'l Code: 1999-025BBE
Perigee: 803.4 km
Apogee: 1,014.0 km
Inclination: 98.6 °
Period: 103.0 minutes
Semi major axis: 7279 km
RCS: 0.0079 m2 (small)
Launch date: May 10, 1999
Source: People's Republic of China (PRC)
Launch site: Taiyaun Space Center, China (TSC)

Note: This is SATELLITE DEBRIS
Your satellite tracking list
Your tracking list is empty




NASA's NSSDC Master Catalog

Two Line Element Set (TLE):
1 30964U 99025BBE 24325.44454946  .00003319  00000-0  21744-2 0  9999
2 30964  98.6296 308.3841 0144653 236.1644 277.5907 13.97765354899799
Source of the keplerian elements: AFSPC